• In Belgium
  • List of Countries
  • For 7 days
  • Water Temperature
  • Satellite Maps
  • Weather Map
  • Weather Widgets
  • user-avatar
    Login

    Hourly Weather Ansembourg

    Today, 20 February, Tuesday

    Time Temperature Precipitation Wind Pressure Humidity
    00:00 -2°C° 0 mm 0 mps 734 mmHg 82%
    01:00 -2°C° 0 mm 0 mps 734 mmHg 83%
    02:00 -2°C° 0 mm 1 mps 734 mmHg 83%
    03:00 -2°C° 0 mm 1 mps 734 mmHg 84%
    04:00 -2°C° 0 mm 1 mps 734 mmHg 84%
    05:00 -2°C° 0 mm 1 mps 734 mmHg 84%
    06:00 -2°C° 0 mm 1 mps 734 mmHg 87%
    07:00 -1°C° 0 mm 1 mps 734 mmHg 82%
    08:00 0°C° 0 mm 1 mps 734 mmHg 77%
    09:00 +1°C° 0 mm 1 mps 734 mmHg 72%
    10:00 +2°C° 0 mm 1 mps 734 mmHg 68%
    11:00 +3°C° 0 mm 1 mps 734 mmHg 63%
    12:00 +3°C° 0 mm 2 mps 734 mmHg 58%
    13:00 +4°C° 0 mm 2 mps 734 mmHg 59%
    14:00 +4°C° 0 mm 2 mps 734 mmHg 60%
    15:00 +4°C° 0 mm 2 mps 734 mmHg 61%
    16:00 +2°C° 0 mm 2 mps 734 mmHg 68%
    17:00 +1°C° 0 mm 2 mps 734 mmHg 74%
    18:00 -2°C° 0 mm 2 mps 735 mmHg 80%
    19:00 -2°C° 0 mm 2 mps 735 mmHg 81%
    20:00 -2°C° 0 mm 2 mps 735 mmHg 82%
    21:00 -3°C° 0 mm 2 mps 736 mmHg 83%
    22:00 -3°C° 0 mm 2 mps 736 mmHg 84%
    23:00 -4°C° 0 mm 3 mps 736 mmHg 86%

    Tomorrow, 21 February, Wednesday

    Time Temperature Precipitation Wind Pressure Humidity
    00:00 -5°C° 0 mm 3 mps 737 mmHg 87%
    01:00 -5°C° 0 mm 3 mps 737 mmHg 87%
    02:00 -5°C° 0 mm 3 mps 737 mmHg 86%
    03:00 -5°C° 0 mm 3 mps 737 mmHg 86%
    04:00 -5°C° 0 mm 3 mps 737 mmHg 86%
    05:00 -5°C° 0 mm 3 mps 737 mmHg 86%
    06:00 -5°C° 0 mm 3 mps 737 mmHg 86%
    07:00 -4°C° 0 mm 4 mps 738 mmHg 81%
    08:00 -3°C° 0 mm 4 mps 738 mmHg 76%
    09:00 -2°C° 0 mm 4 mps 738 mmHg 70%
    10:00 -1°C° 0 mm 4 mps 738 mmHg 66%
    11:00 +1°C° 0 mm 5 mps 738 mmHg 61%
    12:00 +2°C° 0 mm 5 mps 738 mmHg 56%
    13:00 +2°C° 0 mm 5 mps 738 mmHg 56%
    14:00 +2°C° 0 mm 5 mps 737 mmHg 57%
    15:00 +2°C° 0 mm 5 mps 737 mmHg 57%
    16:00 0°C° 0 mm 4 mps 737 mmHg 64%
    17:00 -1°C° 0 mm 4 mps 737 mmHg 70%
    18:00 -2°C° 0 mm 3 mps 737 mmHg 76%
    19:00 -2°C° 0 mm 3 mps 737 mmHg 77%
    20:00 -2°C° 0 mm 3 mps 737 mmHg 78%
    21:00 -4°C° 0 mm 4 mps 737 mmHg 79%
    22:00 -4°C° 0 mm 4 mps 737 mmHg 79%
    23:00 -4°C° 0 mm 4 mps 737 mmHg 80%

    Day after tomorrow, 22 February, Thursday

    Time Temperature Precipitation Wind Pressure Humidity
    00:00 -5°C° 0 mm 4 mps 737 mmHg 80%
    01:00 -5°C° 0 mm 4 mps 736 mmHg 80%
    02:00 -5°C° 0 mm 4 mps 736 mmHg 81%
    03:00 -5°C° 0 mm 4 mps 736 mmHg 82%
    04:00 -5°C° 0 mm 4 mps 736 mmHg 82%
    05:00 -6°C° 0 mm 5 mps 736 mmHg 81%
    06:00 -6°C° 0 mm 5 mps 736 mmHg 81%
    07:00 -6°C° 0 mm 5 mps 736 mmHg 75%
    08:00 -5°C° 0 mm 6 mps 736 mmHg 70%
    09:00 -4°C° 0 mm 6 mps 737 mmHg 64%
    10:00 -3°C° 0 mm 7 mps 736 mmHg 58%
    11:00 -2°C° 0 mm 7 mps 736 mmHg 53%
    12:00 -1°C° 0 mm 7 mps 736 mmHg 48%
    13:00 -1°C° 0 mm 7 mps 736 mmHg 47%
    14:00 -1°C° 0 mm 7 mps 735 mmHg 47%
    15:00 -1°C° 0 mm 7 mps 735 mmHg 47%
    16:00 -2°C° 0 mm 6 mps 735 mmHg 50%
    17:00 -3°C° 0 mm 6 mps 736 mmHg 54%
    18:00 -4°C° 0 mm 5 mps 736 mmHg 58%
    19:00 -5°C° 0 mm 5 mps 736 mmHg 58%
    20:00 -5°C° 0 mm 6 mps 736 mmHg 58%
    21:00 -5°C° 0 mm 6 mps 736 mmHg 58%
    22:00 -5°C° 0 mm 6 mps 736 mmHg 59%
    23:00 -6°C° 0 mm 6 mps 736 mmHg 60%

    23 February, Friday

    Time Temperature Precipitation Wind Pressure Humidity
    00:00 -6°C° 0 mm 6 mps 736 mmHg 60%
    01:00 -6°C° 0 mm 5 mps 736 mmHg 60%
    02:00 -6°C° 0 mm 5 mps 736 mmHg 60%
    03:00 -6°C° 0 mm 5 mps 736 mmHg 60%
    04:00 -7°C° 0 mm 5 mps 736 mmHg 59%
    05:00 -7°C° 0 mm 5 mps 736 mmHg 58%
    06:00 -8°C° 0 mm 6 mps 736 mmHg 57%
    07:00 -6°C° 0 mm 6 mps 736 mmHg 54%
    08:00 -5°C° 0 mm 6 mps 736 mmHg 50%
    09:00 -6°C° 0 mm 7 mps 737 mmHg 47%
    10:00 -3°C° 0 mm 7 mps 736 mmHg 44%
    11:00 -2°C° 0 mm 7 mps 736 mmHg 41%
    12:00 -1°C° 0 mm 7 mps 736 mmHg 38%
    13:00 -1°C° 0 mm 7 mps 736 mmHg 38%
    14:00 -1°C° 0 mm 7 mps 736 mmHg 38%
    15:00 -1°C° 0 mm 7 mps 736 mmHg 38%
    16:00 -2°C° 0 mm 6 mps 736 mmHg 42%
    17:00 -3°C° 0 mm 6 mps 736 mmHg 45%
    18:00 -4°C° 0 mm 5 mps 736 mmHg 48%
    19:00 -5°C° 0 mm 5 mps 736 mmHg 49%
    20:00 -5°C° 0 mm 6 mps 736 mmHg 49%
    21:00 -5°C° 0 mm 6 mps 736 mmHg 50%
    22:00 -5°C° 0 mm 6 mps 736 mmHg 50%
    23:00 -6°C° 0 mm 6 mps 736 mmHg 51%

    24 February, Saturday

    Time Temperature Precipitation Wind Pressure Humidity
    00:00 -6°C° 0 mm 6 mps 736 mmHg 51%
    01:00 -6°C° 0 mm 6 mps 736 mmHg 52%
    02:00 -6°C° 0 mm 6 mps 736 mmHg 52%
    03:00 -6°C° 0 mm 6 mps 736 mmHg 52%
    04:00 -6°C° 0 mm 6 mps 736 mmHg 52%
    05:00 -6°C° 0 mm 6 mps 736 mmHg 51%
    06:00 -7°C° 0 mm 7 mps 736 mmHg 50%
    07:00 -6°C° 0 mm 7 mps 736 mmHg 46%
    08:00 -5°C° 0 mm 8 mps 736 mmHg 42%
    09:00 -5°C° 0 mm 8 mps 737 mmHg 38%
    10:00 -4°C° 0 mm 8 mps 737 mmHg 35%
    11:00 -1°C° 0 mm 8 mps 737 mmHg 33%
    12:00 0°C° 0 mm 9 mps 736 mmHg 30%
    13:00 0°C° 0 mm 9 mps 736 mmHg 30%
    14:00 0°C° 0 mm 8 mps 736 mmHg 30%
    15:00 0°C° 0 mm 8 mps 736 mmHg 31%
    16:00 -1°C° 0 mm 8 mps 736 mmHg 34%
    17:00 -4°C° 0 mm 8 mps 736 mmHg 37%
    18:00 -4°C° 0 mm 7 mps 737 mmHg 40%
    19:00 -4°C° 0 mm 7 mps 737 mmHg 42%
    20:00 -6°C° 0 mm 7 mps 737 mmHg 44%
    21:00 -6°C° 0 mm 7 mps 738 mmHg 46%
    22:00 -7°C° 0 mm 7 mps 738 mmHg 44%
    23:00 -7°C° 0 mm 7 mps 738 mmHg 42%

    25 February, Sunday

    Time Temperature Precipitation Wind Pressure Humidity
    00:00 -7°C° 0 mm 7 mps 738 mmHg 41%
    01:00 -8°C° 0 mm 7 mps 738 mmHg 39%
    02:00 -8°C° 0 mm 7 mps 738 mmHg 38%
    03:00 -9°C° 0 mm 7 mps 738 mmHg 36%
    04:00 -9°C° 0 mm 7 mps 738 mmHg 35%
    05:00 -9°C° 0 mm 7 mps 738 mmHg 33%
    06:00 -9°C° 0 mm 7 mps 738 mmHg 32%
    07:00 -10°C° 0 mm 8 mps 739 mmHg 30%
    08:00 -8°C° 0 mm 8 mps 739 mmHg 28%
    09:00 -8°C° 0 mm 8 mps 739 mmHg 26%
    10:00 -7°C° 0 mm 8 mps 739 mmHg 25%
    11:00 -6°C° 0 mm 8 mps 739 mmHg 23%
    12:00 -5°C° 0 mm 8 mps 739 mmHg 22%
    13:00 -4°C° 0 mm 7 mps 739 mmHg 22%
    14:00 -6°C° 0 mm 7 mps 739 mmHg 22%
    15:00 -6°C° 0 mm 7 mps 738 mmHg 23%
    16:00 -7°C° 0 mm 7 mps 739 mmHg 26%
    17:00 -8°C° 0 mm 6 mps 739 mmHg 29%
    18:00 -9°C° 0 mm 6 mps 739 mmHg 32%
    19:00 -9°C° 0 mm 6 mps 739 mmHg 34%
    20:00 -10°C° 0 mm 6 mps 740 mmHg 35%
    21:00 -10°C° 0 mm 6 mps 740 mmHg 37%
    22:00 -11°C° 0 mm 6 mps 740 mmHg 39%
    23:00 -11°C° 0 mm 6 mps 740 mmHg 42%
    Show more